FW9424 Weather Reports


time (UTC)temp
C
wind
direction
speed
KPH
gust
KPH
rain 1hr
cm
rain 24hr
cm
rain mn
cm
humidity
%
barometer
mb
20260508082517 21 346 6.4 14.5 0.00 0.00 0.00 63 1018.6
20260508081537 22 268 8.0 12.9 0.00 0.00 0.00 59 1018.6
20260508080517 23 0.0 0.0 0.00 0.00 0.00 44 1018.5
20260508075518 23 217 0.0 1.6 0.00 0.00 0.00 48 1018.4
20260508074537 22 111 0.0 1.6 0.00 0.00 0.00 49 1018.1
20260508073517 22 99 0.0 4.8 0.00 0.00 0.00 51 1018.0
20260508072517 22 113 0.0 1.6 0.00 0.00 0.00 53 1018.0
20260508071537 22 99 0.0 4.8 0.00 0.00 0.00 54 1017.8
20260508070518 22 71 0.0 3.2 0.00 0.00 0.00 59 1017.7
20260508065517 22 103 1.6 6.4 0.00 0.00 0.00 60 1017.7
20260508064518 22 103 1.6 4.8 0.00 0.00 0.00 60 1017.6
20260508063517 21 128 1.6 4.8 0.00 0.00 0.00 61 1017.5
20260508062537 21 99 3.2 11.3 0.00 0.00 0.00 63 1017.4
20260508061537 21 228 0.0 4.8 0.00 0.00 0.00 65 1017.5
20260508060518 21 160 0.0 4.8 0.00 0.00 0.00 65 1017.4
20260508055517 20 113 1.6 11.3 0.00 0.00 0.00 66 1017.4
20260508054517 20 113 1.6 12.9 0.00 0.00 0.00 68 1017.5
20260508053518 20 100 4.8 12.9 0.00 0.00 0.00 66 1017.6
20260508052517 20 101 1.6 12.9 0.00 0.00 0.00 66 1017.7
20260508051537 19 101 6.4 9.7 0.00 0.00 0.00 69 1017.7
20260508050517 19 105 6.4 14.5 0.00 0.00 0.00 71 1017.7
20260508045538 18 107 8.0 14.5 0.00 0.00 0.00 70 1017.6
20260508044518 18 105 6.4 16.1 0.00 0.00 0.00 70 1017.5
20260508043517 18 96 1.6 6.4 0.00 0.00 0.00 69 1017.6
20260508042517 17 109 1.6 4.8 0.00 0.00 0.00 70 1017.6
20260508041517 17 0.0 0.0 0.00 0.00 0.00 70 1017.6
20260508040517 16 0.0 0.0 0.00 0.00 0.00 69 1017.6
20260508035518 16 0.0 0.0 0.00 0.00 0.00 69 1017.6
20260508034517 16 0.0 0.0 0.00 0.00 0.00 69 1017.7
20260508033517 16 0.0 0.0 0.00 0.00 0.00 67 1017.6
20260508032517 17 0.0 0.0 0.00 0.00 0.00 67 1017.4
20260508031518 17 0.0 0.0 0.00 0.00 0.00 64 1017.4
20260508030517 17 0.0 0.0 0.00 0.00 0.00 64 1017.5
20260508025517 17 0.0 0.0 0.00 0.00 0.00 64 1017.5
20260508024517 17 0.0 0.0 0.00 0.00 0.00 65 1017.4
20260508023517 17 0.0 0.0 0.00 0.00 0.00 66 1017.3
20260508022517 18 0.0 0.0 0.00 0.00 0.00 68 1017.3
20260508021517 18 0.0 0.0 0.00 0.00 0.00 70 1017.2
20260508020517 18 215 0.0 1.6 0.00 0.00 0.00 68 1017.2
20260508015517 18 99 0.0 4.8 0.00 0.00 0.00 69 1017.3
20260508014517 18 109 1.6 9.7 0.00 0.00 0.00 69 1017.3
20260508013517 18 112 0.0 4.8 0.00 0.00 0.00 71 1017.5
20260508012517 18 121 4.8 11.3 0.00 0.00 0.00 73 1017.6
20260508011558 18 108 3.2 12.9 0.00 0.00 0.00 72 1017.3
20260508010517 18 123 1.6 8.0 0.00 0.00 0.00 70 1017.3
20260508005517 17 105 3.2 14.5 0.00 0.00 0.00 73 1017.4
20260508004517 17 101 3.2 11.3 0.00 0.00 0.00 75 1017.5
20260508003538 17 110 3.2 12.9 0.00 0.00 0.00 77 1017.5
20260508002517 17 101 4.8 14.5 0.00 0.00 0.00 77 1017.6
20260508001518 17 103 3.2 12.9 0.00 0.00 0.00 76 1017.6
20260508000517 17 77 1.6 8.0 0.00 0.00 0.00 76 1017.8
20260507235518 17 96 1.6 8.0 0.00 0.00 0.00 76 1018.0
20260507234517 17 103 1.6 11.3 0.00 0.00 0.00 73 1018.1
20260507233518 17 0.0 0.0 0.00 0.00 0.00 66 1018.1
20260507232517 17 0.0 0.0 0.00 0.00 0.00 64 1018.0
20260507231518 17 0.0 0.0 0.00 0.00 0.00 64 1018.2
20260507230517 17 0.0 0.0 0.00 0.00 0.00 63 1018.2
20260507225517 16 0.0 3.2 0.00 0.00 0.00 65 1018.1
20260507224539 17 0.0 0.0 0.00 0.00 0.00 66 1018.0
20260507223517 17 116 0.0 1.6 0.00 0.00 0.00 66 1018.1
20260507222519 17 325 0.0 3.2 0.00 0.00 0.00 69 1018.2
20260507221517 18 105 3.2 11.3 0.00 0.00 0.00 65 1018.1
20260507220517 17 0.0 0.0 0.00 0.00 0.00 65 1018.1
20260507215517 17 0.0 0.0 0.00 0.00 0.00 63 1018.2
20260507214517 17 0.0 0.0 0.00 0.00 0.00 65 1018.3
20260507213516 17 0.0 0.0 0.00 0.00 0.00 64 1018.3
20260507212517 17 0.0 0.0 0.00 0.00 0.00 61 1018.2
20260507211516 17 0.0 0.0 0.00 0.00 0.00 61 1018.3
20260507210517 17 0.0 0.0 0.00 0.00 0.00 59 1018.3
20260507205517 17 37 0.0 4.8 0.00 0.00 0.00 57 1018.3
20260507204518 17 28 0.0 1.6 0.00 0.00 0.00 56 1018.1
20260507203519 17 0.0 0.0 0.00 0.00 0.00 56 1018.0
20260507202518 17 17 1.6 4.8 0.00 0.00 0.00 61 1018.0
20260507201518 17 15 0.0 1.6 0.00 0.00 0.00 62 1018.0
20260507200518 17 53 0.0 1.6 0.00 0.00 0.00 62 1018.1
20260507195518 18 58 0.0 1.6 0.00 0.00 0.00 63 1018.0
20260507194519 18 56 0.0 1.6 0.00 0.00 0.00 63 1018.0
20260507193538 18 54 3.2 6.4 0.00 0.00 0.00 64 1018.2
20260507192542 18 300 4.8 8.0 0.00 0.00 0.00 69 1018.3
20260507191518 18 279 3.2 6.4 0.00 0.00 0.00 64 1018.0
20260507190517 18 0.0 0.0 0.00 0.00 0.00 63 1017.9
20260507185517 18 0.0 1.6 0.00 0.00 0.00 65 1018.0
20260507184517 18 0.0 0.0 0.00 0.00 0.00 67 1018.2
20260507183518 18 139 0.0 3.2 0.00 0.00 0.00 67 1018.1
20260507182517 18 180 0.0 4.8 0.00 0.00 0.00 68 1018.0
20260507181519 18 319 1.6 4.8 0.00 0.00 0.00 66 1018.0
20260507180538 18 338 1.6 3.2 0.00 0.00 0.00 66 1017.9
20260507175517 19 0.0 0.0 0.00 0.00 0.00 66 1017.8
20260507174519 19 0.0 1.6 0.00 0.00 0.00 66 1017.8
20260507173518 19 0.0 1.6 0.00 0.00 0.00 66 1017.8
20260507172517 20 101 1.6 4.8 0.00 0.00 0.00 65 1017.8
20260507171517 20 194 1.6 4.8 0.00 0.00 0.00 63 1017.8
20260507170517 21 0.0 0.0 0.00 0.00 0.00 59 1017.7
20260507165518 21 0.0 0.0 0.00 0.00 0.00 57 1017.7
20260507164518 22 171 0.0 1.6 0.00 0.00 0.00 48 1017.6
20260507163517 22 14 1.6 4.8 0.00 0.00 0.00 48 1017.6
20260507162519 22 341 4.8 9.7 0.00 0.00 0.00 50 1017.8
20260507161517 23 300 3.2 8.0 0.00 0.00 0.00 48 1017.7
20260507160517 25 354 0.0 4.8 0.00 0.00 0.00 47 1017.6
20260507155518 24 229 1.6 3.2 0.00 0.00 0.00 49 1017.6
20260507154518 23 264 1.6 4.8 0.00 0.00 0.00 49 1017.6
20260507153518 23 317 1.6 4.8 0.00 0.00 0.00 49 1017.5
20260507152538 23 224 0.0 3.2 0.00 0.00 0.00 57 1017.5
20260507151519 22 272 1.6 6.4 0.00 0.00 0.00 53 1017.4
20260507150517 22 291 3.2 6.4 0.00 0.00 0.00 54 1017.5
20260507145517 22 292 3.2 8.0 0.00 0.00 0.00 55 1017.6
20260507144517 22 300 3.2 6.4 0.00 0.00 0.00 58 1017.6
20260507143518 21 294 3.2 11.3 0.00 0.00 0.00 59 1017.7
20260507142538 21 277 8.0 16.1 0.00 0.00 0.00 62 1017.8
20260507141518 21 270 8.0 16.1 0.00 0.00 0.00 61 1017.7
20260507140518 21 268 8.0 14.5 0.00 0.00 0.00 62 1017.6
20260507135538 21 289 8.0 16.1 0.00 0.00 0.00 66 1017.7
20260507134518 21 285 9.7 16.1 0.00 0.00 0.00 65 1017.8
20260507133518 22 286 8.0 14.5 0.00 0.00 0.00 56 1017.7
20260507132518 22 286 4.8 12.9 0.00 0.00 0.00 54 1017.8
20260507131518 22 307 4.8 9.7 0.00 0.00 0.00 56 1017.9
20260507130518 22 288 6.4 14.5 0.00 0.00 0.00 52 1017.8
20260507125518 22 265 8.0 12.9 0.00 0.00 0.00 54 1017.9
20260507124519 22 320 4.8 9.7 0.00 0.00 0.00 56 1017.9
20260507123518 22 299 6.4 11.3 0.00 0.00 0.00 59 1018.0
20260507122518 23 274 4.8 12.9 0.00 0.00 0.00 59 1017.9
20260507121518 22 261 3.2 8.0 0.00 0.00 0.00 63 1018.0
20260507120518 22 297 6.4 12.9 0.00 0.00 0.00 63 1018.0
20260507115518 22 302 4.8 11.3 0.00 0.00 0.00 64 1018.0
20260507114518 22 289 8.0 16.1 0.00 0.00 0.00 65 1018.1
20260507113518 23 287 8.0 17.7 0.00 0.00 0.00 55 1018.0
20260507112518 24 289 8.0 14.5 0.00 0.00 0.00 49 1017.9
20260507111518 26 208 8.0 17.7 0.00 0.00 0.00 35 1017.9
20260507110518 26 187 6.4 14.5 0.00 0.00 0.00 36 1017.9
20260507105518 26 178 9.7 16.1 0.00 0.00 0.00 35 1018.0
20260507104518 25 168 8.0 19.3 0.00 0.00 0.00 34 1018.0
20260507103538 25 187 4.8 14.5 0.00 0.00 0.00 37 1018.0
20260507102538 25 193 6.4 19.3 0.00 0.00 0.00 39 1018.0
20260507101519 25 194 6.4 14.5 0.00 0.00 0.00 44 1018.1
20260507100518 25 175 8.0 17.7 0.00 0.00 0.00 42 1018.1
20260507095518 24 159 6.4 17.7 0.00 0.00 0.00 41 1018.1
20260507094518 24 157 8.0 17.7 0.00 0.00 0.00 43 1018.1
20260507093518 24 158 8.0 17.7 0.00 0.00 0.00 43 1018.1
20260507092518 23 172 8.0 17.7 0.00 0.00 0.00 43 1018.1
20260507091519 24 184 8.0 16.1 0.00 0.00 0.00 44 1018.3
20260507090518 23 153 4.8 12.9 0.00 0.00 0.00 45 1018.3
20260507085518 23 150 3.2 11.3 0.00 0.00 0.00 44 1018.3
20260507084518 23 155 3.2 12.9 0.00 0.00 0.00 43 1018.3
20260507083539 23 136 6.4 14.5 0.00 0.00 0.00 44 1018.4